Weather History for Fosston, MN

Change the Weather History Date:

Wednesday, January 9, 2013

  Actual Average Record
Temperature  
Mean Temperature 24 °F -  
Max Temperature 28 °F 11 °F 44 °F (1958)
Min Temperature 19 °F -9 °F -38 °F (1989)
Degree Days  
Heating Degree Days 42    
Moisture  
Dew Point 17 °F    
Average Humidity 78    
Maximum Humidity 86    
Minimum Humidity 64    
Precipitation  
Precipitation 0.00 in - - ()
Sea Level Pressure  
Sea Level Pressure 30.03 in    
Wind  
Wind Speed 16 mph (SW)    
Max Wind Speed 28 mph    
Max Gust Speed 34 mph    
Visibility 10 miles    
Events Snow    
Averages and records for this station are not official NWS values.
T = Trace of Precipitation, MM = Missing Value Source: NWS Daily Summary

Daily Weather History Graph

Daily Weather History Graph

Search for Another Location

Airport:

Trip Planner

Search our weather history database for the weather conditions in past years. The results will help you decide how hot, cold, wet, or windy it might be!

Date:

Astronomy

Jan. 09, 2013 Rise Set
Actual Time 8:09 AM CST 4:51 PM CST
Civil Twilight 7:34 AM CST 5:26 PM CST
Nautical Twilight 6:55 AM CST 6:05 PM CST
Astronomical Twilight 6:18 AM CST 6:42 PM CST
Moon 5:50 AM CST (1/9) 2:53 PM CST (1/9)
Length of Visible Light 9h 52m
Length of Day
8h 42m
Waning Crescent, 6% of the Moon is Illuminated
Jan 9
Waning Crescent
Jan 11
New
Jan 18
First Quarter
Jan 26
Full
Feb 3
Last Quarter

Hourly Weather History & Observations

Time (CST) Temp. Windchill Dew Point Humidity Pressure Visibility Wind Dir Wind Speed Gust Speed Precip Events Conditions
12:16 AM 28.4 °F 15.1 °F 21.2 °F 74% 29.70 in 10.0 mi WSW 20.7 mph 25.3 mph N/A   Overcast
12:35 AM 28.4 °F 14.7 °F 23.0 °F 80% 29.70 in 10.0 mi WSW 21.9 mph 27.6 mph N/A   Overcast
12:55 AM 28.4 °F 14.4 °F 23.0 °F 80% 29.70 in 10.0 mi WSW 23.0 mph 29.9 mph N/A   Overcast
1:16 AM 28.4 °F 14.4 °F 23.0 °F 80% 29.71 in 4.0 mi West 23.0 mph 28.8 mph N/A Snow Light Snow
1:35 AM 26.6 °F 12.4 °F 23.0 °F 86% 29.72 in 2.5 mi West 21.9 mph 34.5 mph N/A Snow Light Snow
1:55 AM 26.6 °F 12.0 °F 23.0 °F 86% 29.74 in 1.8 mi West 23.0 mph 29.9 mph N/A Snow Light Snow
2:16 AM 26.6 °F 12.4 °F 23.0 °F 86% 29.75 in 10.0 mi WSW 21.9 mph 28.8 mph N/A Snow Light Snow
2:35 AM 26.6 °F 12.7 °F 21.2 °F 80% 29.76 in 10.0 mi West 20.7 mph 32.2 mph N/A   Overcast
2:55 AM 26.6 °F 12.7 °F 21.2 °F 80% 29.77 in 10.0 mi West 20.7 mph 34.5 mph N/A   Overcast
3:15 AM 26.6 °F 12.0 °F 21.2 °F 80% 29.78 in 10.0 mi West 23.0 mph 34.5 mph N/A   Overcast
3:35 AM 26.6 °F 12.4 °F 21.2 °F 80% 29.81 in 10.0 mi West 21.9 mph 32.2 mph N/A   Overcast
3:55 AM 26.6 °F 10.8 °F 19.4 °F 74% 29.82 in 10.0 mi West 27.6 mph 34.5 mph N/A   Overcast
4:15 AM 24.8 °F 9.3 °F 19.4 °F 80% 29.84 in 10.0 mi West 24.2 mph 32.2 mph N/A   Overcast
4:35 AM 24.8 °F 10.0 °F 19.4 °F 80% 29.85 in 10.0 mi West 21.9 mph 27.6 mph N/A   Overcast
4:55 AM 24.8 °F 11.9 °F 19.4 °F 80% 29.87 in 10.0 mi West 16.1 mph 25.3 mph N/A   Overcast
5:15 AM 24.8 °F 10.7 °F 19.4 °F 80% 29.89 in 10.0 mi West 19.6 mph 23.0 mph N/A   Overcast
5:35 AM 23.0 °F 9.2 °F 19.4 °F 86% 29.90 in 10.0 mi West 17.3 mph 24.2 mph N/A   Overcast
5:55 AM 23.0 °F 8.7 °F 17.6 °F 80% 29.92 in 10.0 mi West 18.4 mph 24.2 mph N/A   Overcast
6:15 AM 21.2 °F 7.3 °F 17.6 °F 86% 29.94 in 10.0 mi West 16.1 mph 24.2 mph N/A   Overcast
6:35 AM 21.2 °F 6.8 °F 17.6 °F 86% 29.96 in 10.0 mi West 17.3 mph 25.3 mph N/A   Overcast
6:55 AM 21.2 °F 7.3 °F 15.8 °F 80% 29.98 in 10.0 mi West 16.1 mph 24.2 mph N/A   Overcast
7:15 AM 21.2 °F 7.8 °F 15.8 °F 80% 30.01 in 10.0 mi West 15.0 mph 25.3 mph N/A   Overcast
7:35 AM 19.4 °F 4.5 °F 15.8 °F 86% 30.04 in 10.0 mi West 17.3 mph - N/A   Overcast
7:56 AM 19.4 °F 5.0 °F 14.0 °F 80% 30.04 in 10.0 mi West 16.1 mph 20.7 mph N/A   Overcast
8:15 AM 19.4 °F 5.5 °F 14.0 °F 80% 30.06 in 10.0 mi West 15.0 mph 21.9 mph N/A   Overcast
8:35 AM 19.4 °F 7.2 °F 14.0 °F 80% 30.07 in 10.0 mi West 11.5 mph - N/A   Overcast
8:55 AM 19.4 °F 6.6 °F 14.0 °F 80% 30.08 in 10.0 mi West 12.7 mph 18.4 mph N/A   Overcast
9:15 AM 19.4 °F 8.6 °F 14.0 °F 80% 30.10 in 10.0 mi West 9.2 mph - N/A   Overcast
9:35 AM 19.4 °F 7.2 °F 14.0 °F 80% 30.10 in 10.0 mi West 11.5 mph - N/A   Overcast
9:55 AM 19.4 °F 7.9 °F 14.0 °F 80% 30.11 in 10.0 mi West 10.4 mph - N/A   Overcast
10:15 AM 19.4 °F 6.6 °F 14.0 °F 80% 30.12 in 10.0 mi West 12.7 mph 21.9 mph N/A   Overcast
10:35 AM 19.4 °F 6.0 °F 14.0 °F 80% 30.13 in 10.0 mi West 13.8 mph 18.4 mph N/A   Overcast
10:55 AM 21.2 °F 8.3 °F 14.0 °F 74% 30.13 in 10.0 mi West 13.8 mph 20.7 mph N/A   Overcast
11:15 AM 21.2 °F 8.9 °F 14.0 °F 74% 30.14 in 10.0 mi West 12.7 mph - N/A   Overcast
11:35 AM 21.2 °F 10.9 °F 14.0 °F 74% 30.14 in 10.0 mi West 9.2 mph - N/A   Overcast
11:55 AM 21.2 °F 10.1 °F 14.0 °F 74% 30.14 in 10.0 mi West 10.4 mph - N/A   Mostly Cloudy
12:15 PM 26.6 °F 17.5 °F 15.8 °F 64% 30.13 in 10.0 mi West 9.2 mph - N/A   Scattered Clouds
12:35 PM 26.6 °F 19.1 °F 15.8 °F 64% 30.13 in 10.0 mi WSW 6.9 mph - N/A   Clear
12:55 PM 26.6 °F - 15.8 °F 64% 30.13 in 10.0 mi Calm Calm - N/A   Clear
1:15 PM 26.6 °F 20.0 °F 15.8 °F 64% 30.13 in 10.0 mi WSW 5.8 mph - N/A   Clear
1:35 PM 26.6 °F 22.6 °F 15.8 °F 64% 30.15 in 10.0 mi SW 3.5 mph - N/A   Clear
1:55 PM 26.6 °F 21.2 °F 17.6 °F 69% 30.17 in 10.0 mi SW 4.6 mph - N/A   Scattered Clouds
2:15 PM 26.6 °F 17.5 °F 15.8 °F 64% 30.18 in 10.0 mi SSW 9.2 mph - N/A   Scattered Clouds
2:35 PM 21.2 °F - 15.8 °F 80% 30.17 in 10.0 mi Calm Calm - N/A   Clear
2:55 PM 21.2 °F - 15.8 °F 80% 30.17 in 10.0 mi Calm Calm - N/A   Mostly Cloudy
3:15 PM 21.2 °F 13.6 °F 15.8 °F 80% 30.18 in 10.0 mi South 5.8 mph - N/A   Mostly Cloudy
3:35 PM 21.2 °F 9.5 °F 15.8 °F 80% 30.20 in 10.0 mi South 11.5 mph - N/A   Overcast
3:55 PM 21.2 °F 8.9 °F 15.8 °F 80% 30.21 in 10.0 mi SSW 12.7 mph - N/A   Overcast
4:15 PM 21.2 °F 9.5 °F 15.8 °F 80% 30.22 in 10.0 mi South 11.5 mph - N/A   Overcast
4:35 PM 21.2 °F 9.5 °F 15.8 °F 80% 30.21 in 10.0 mi South 11.5 mph - N/A   Overcast
4:55 PM 21.2 °F 10.1 °F 15.8 °F 80% 30.20 in 10.0 mi South 10.4 mph - N/A   Overcast
5:15 PM 21.2 °F 9.5 °F 15.8 °F 80% 30.19 in 10.0 mi South 11.5 mph - N/A   Overcast
5:35 PM 21.2 °F 9.5 °F 15.8 °F 80% 30.17 in 10.0 mi South 11.5 mph - N/A   Overcast
5:55 PM 21.2 °F 11.7 °F 15.8 °F 80% 30.17 in 10.0 mi SSE 8.1 mph - N/A   Overcast
6:15 PM 23.0 °F 14.7 °F 17.6 °F 80% 30.15 in 10.0 mi SE 6.9 mph - N/A   Overcast
6:35 PM 21.2 °F 12.6 °F 17.6 °F 86% 30.12 in 10.0 mi SE 6.9 mph - N/A   Scattered Clouds
6:55 PM 21.2 °F 13.6 °F 17.6 °F 86% 30.11 in 10.0 mi ESE 5.8 mph - N/A   Clear
7:15 PM 21.2 °F 13.6 °F 17.6 °F 86% 30.12 in 10.0 mi SE 5.8 mph - N/A   Clear
7:35 PM 21.2 °F - 15.8 °F 80% 30.11 in 10.0 mi Calm Calm - N/A   Clear
7:55 PM 21.2 °F 13.6 °F 15.8 °F 80% 30.12 in 10.0 mi SSE 5.8 mph - N/A   Clear
8:15 PM 19.4 °F 14.3 °F 12.2 °F 74% 30.11 in 10.0 mi SSE 3.5 mph - N/A   Clear
8:36 PM 19.4 °F 11.5 °F 14.0 °F 80% 30.10 in 10.0 mi SE 5.8 mph - N/A   Clear
8:55 PM 19.4 °F 12.8 °F 15.8 °F 86% 30.09 in 10.0 mi SE 4.6 mph - N/A   Clear
9:15 PM 21.2 °F 12.6 °F 15.8 °F 80% 30.09 in 10.0 mi SE 6.9 mph - N/A   Clear
9:36 PM 21.2 °F 10.9 °F 17.6 °F 86% 30.08 in 10.0 mi SE 9.2 mph - N/A   Clear
9:55 PM 24.8 °F 15.3 °F 17.6 °F 74% 30.07 in 10.0 mi SE 9.2 mph - N/A   Clear
10:15 PM 24.8 °F 14.6 °F 17.6 °F 74% 30.05 in 10.0 mi SE 10.4 mph - N/A   Clear
10:36 PM 26.6 °F 16.2 °F 17.6 °F 69% 30.05 in 10.0 mi SSE 11.5 mph - N/A   Clear
10:55 PM 26.6 °F 16.8 °F 17.6 °F 69% 30.06 in 10.0 mi SSE 10.4 mph - N/A   Clear
11:15 PM 26.6 °F 18.2 °F 15.8 °F 64% 30.05 in 10.0 mi SSE 8.1 mph - N/A   Clear
11:36 PM 26.6 °F 20.0 °F 17.6 °F 69% 30.04 in 10.0 mi SSE 5.8 mph - N/A   Clear
11:55 PM 24.8 °F 16.9 °F 17.6 °F 74% 30.05 in 10.0 mi SSE 6.9 mph - N/A   Clear